EW0121 Weather Reports


time (UTC)temp
C
wind
direction
speed
KPH
gust
KPH
rain 1hr
cm
rain 24hr
cm
rain mn
cm
humidity
%
barometer
mb
20260507143016 17 120 1.6 9.7 0.00 0.00 0.00 50 1015.9
20260507141521 16 153 1.6 12.9 0.00 0.00 0.00 50 1016.0
20260507140021 17 185 3.2 11.3 0.00 0.00 0.00 47 1015.9
20260507134520 17 76 1.6 12.9 0.00 0.00 0.00 49 1015.9
20260507133021 16 360 1.6 11.3 0.00 0.00 0.00 50 1015.9
20260507131514 16 125 1.6 9.7 0.00 0.00 0.00 49 1016.1
20260507130012 16 266 0.0 8.0 0.00 0.00 0.00 49 1016.1
20260507124506 15 90 1.6 6.4 0.00 0.00 0.00 48 1016.2
20260507123014 16 112 3.2 12.9 0.00 0.00 0.00 45 1016.2
20260507121517 16 135 3.2 11.3 0.00 0.00 0.00 43 1016.1
20260507120018 17 55 3.2 12.9 0.00 0.00 0.00 43 1016.1
20260507114517 16 5 3.2 9.7 0.00 0.00 0.00 44 1016.1
20260507113011 18 51 3.2 12.9 0.00 0.00 0.00 45 1016.1
20260507111514 17 234 1.6 4.8 0.00 0.00 0.00 46 1016.2
20260507110018 17 161 3.2 11.3 0.00 0.00 0.00 48 1016.5
20260507104520 16 119 3.2 8.0 0.00 0.00 0.00 51 1016.5
20260507103021 15 127 3.2 9.7 0.00 0.00 0.00 53 1016.7
20260507101532 16 141 3.2 8.0 0.00 0.00 0.00 56 1016.7
20260507100021 14 140 4.8 12.9 0.00 0.00 0.00 57 1016.7
20260507094523 15 177 4.8 16.1 0.00 0.00 0.00 57 1016.7
20260507093022 13 157 1.6 12.9 0.00 0.00 0.00 63 1016.7
20260507091523 13 83 3.2 12.9 0.00 0.00 0.00 70 1016.7
20260507090021 12 133 4.8 12.9 0.00 0.00 0.00 73 1016.8
20260507084520 11 120 3.2 4.8 0.00 0.00 0.00 76 1016.9
20260507083020 11 69 1.6 8.0 0.00 0.00 0.00 77 1017.0
20260507081526 10 67 0.0 6.4 0.00 0.00 0.00 79 1016.8
20260507080022 9 292 0.0 3.2 0.00 0.00 0.00 80 1017.0
20260507074523 8 234 0.0 4.8 0.00 0.00 0.00 81 1016.9
20260507073024 7 234 1.6 4.8 0.00 0.00 0.00 82 1016.8
20260507071525 7 40 0.0 4.8 0.00 0.00 0.00 83 1016.6
20260507070014 7 213 0.0 6.4 0.00 0.00 0.00 84 1016.5
20260507064514 6 74 1.6 9.7 0.00 0.00 0.00 84 1016.4
20260507063017 6 147 1.6 9.7 0.00 0.00 0.00 84 1016.3
20260507061523 6 45 1.6 9.7 0.00 0.00 0.00 85 1016.3
20260507060027 6 77 0.0 6.4 0.00 0.00 0.00 85 1016.3
20260507054511 5 107 1.6 6.4 0.00 0.00 0.00 85 1016.2
20260507053014 5 103 3.2 9.7 0.00 0.00 0.00 86 1016.2
20260507051522 5 92 1.6 9.7 0.00 0.00 0.00 85 1016.2
20260507050029 5 134 0.0 9.7 0.00 0.00 0.00 86 1016.1
20260507044526 5 122 1.6 9.7 0.00 0.00 0.00 85 1016.1
20260507043010 5 180 1.6 6.4 0.00 0.00 0.00 85 1016.1
20260507041518 5 83 1.6 9.7 0.00 0.00 0.00 85 1016.1
20260507040023 6 55 1.6 12.9 0.00 0.00 0.00 85 1016.1
20260507034525 6 132 1.6 11.3 0.00 0.00 0.00 85 1016.0
20260507033041 6 120 1.6 6.4 0.00 0.00 0.00 84 1015.9
20260507031521 6 103 1.6 9.7 0.00 0.00 0.00 85 1015.9
20260507030022 5 85 3.2 9.7 0.00 0.00 0.00 85 1015.9
20260507024525 5 78 1.6 11.3 0.00 0.00 0.00 84 1015.9
20260507023026 5 69 1.6 6.4 0.00 0.00 0.00 84 1015.9
20260507021526 5 80 3.2 6.4 0.00 0.00 0.00 84 1015.9
20260507020022 5 211 1.6 6.4 0.00 0.00 0.00 84 1016.0
20260507014527 5 82 1.6 14.5 0.00 0.00 0.00 84 1015.9
20260507013033 5 111 3.2 9.7 0.00 0.00 0.00 84 1015.8
20260507011534 5 61 1.6 9.7 0.00 0.00 0.00 83 1015.8
20260507010037 5 119 3.2 11.3 0.00 0.00 0.00 83 1015.9
20260507004520 5 107 1.6 9.7 0.00 0.00 0.00 82 1015.9
20260507003026 5 72 1.6 9.7 0.00 0.00 0.00 82 1016.0
20260507001528 5 84 3.2 9.7 0.00 0.00 0.00 81 1016.1
20260507000028 6 137 0.0 11.3 0.00 0.00 0.00 80 1016.2
20260506234526 6 105 0.0 9.7 0.00 0.00 0.00 80 1016.2
20260506233019 6 124 3.2 9.7 0.00 0.00 0.00 79 1016.2
20260506231525 6 137 1.6 6.4 0.00 0.00 0.00 78 1016.0
20260506230031 6 60 1.6 4.8 0.00 0.00 0.00 77 1016.1
20260506224528 6 92 0.0 3.2 0.00 0.00 0.00 77 1016.1
20260506223028 6 83 0.0 3.2 0.00 0.00 0.00 74 1016.0
20260506221521 7 82 0.0 3.2 0.00 0.00 0.00 72 1015.9
20260506220028 7 75 0.0 6.4 0.00 0.00 0.00 71 1015.8
20260506214513 7 83 1.6 4.8 0.00 0.00 0.00 70 1015.7
20260506213018 7 96 1.6 4.8 0.00 0.00 0.00 69 1015.6
20260506211522 8 98 0.0 4.8 0.00 0.00 0.00 68 1015.5
20260506210031 8 92 0.0 3.2 0.00 0.00 0.00 68 1015.5
20260506204527 8 92 0.0 3.2 0.00 0.00 0.00 68 1015.3
20260506203014 8 66 0.0 3.2 0.00 0.00 0.00 68 1015.3
20260506201520 8 59 0.0 3.2 0.00 0.00 0.00 67 1015.1
20260506200023 9 65 0.0 4.8 0.00 0.00 0.00 66 1015.0
20260506194526 10 49 0.0 3.2 0.00 0.00 0.00 64 1014.9
20260506193027 10 40 0.0 4.8 0.00 0.00 0.00 61 1014.9
20260506191518 11 42 1.6 4.8 0.00 0.00 0.00 57 1014.9
20260506190004 11 14 1.6 3.2 0.00 0.00 0.00 55 1014.7
20260506184506 12 5 1.6 8.0 0.00 0.00 0.00 54 1014.6
20260506183008 12 11 1.6 4.8 0.00 0.00 0.00 53 1014.6
20260506181511 13 28 3.2 12.9 0.00 0.00 0.00 45 1014.4
20260506180025 13 28 1.6 6.4 0.00 0.00 0.00 46 1014.3
20260506174504 13 349 0.0 8.0 0.00 0.00 0.00 47 1014.2
20260506173013 13 343 1.6 4.8 0.00 0.00 0.00 44 1014.3
20260506171514 14 38 1.6 9.7 0.00 0.00 0.00 45 1014.2
20260506170013 15 17 3.2 9.7 0.00 0.00 0.00 45 1014.1
20260506164520 15 309 8.0 17.7 0.00 0.00 0.00 43 1014.0
20260506163004 15 352 1.6 16.1 0.00 0.00 0.00 44 1014.0
20260506161511 15 310 4.8 12.9 0.00 0.00 0.00 43 1014.0
20260506160012 15 18 3.2 12.9 0.00 0.00 0.00 43 1013.9
20260506154515 16 323 3.2 14.5 0.00 0.00 0.00 42 1014.0
20260506153020 17 346 4.8 12.9 0.00 0.00 0.00 41 1014.1
20260506151506 17 316 4.8 16.1 0.00 0.00 0.00 39 1014.2
20260506150012 15 11 3.2 22.5 0.00 0.00 0.00 43 1014.3
20260506144513 17 11 1.6 11.3 0.00 0.00 0.00 39 1014.4